Waarnemingen

Advertentie
Mijn weer
Nancy/Ochey, Frankrijk (7181): temperatuur & dauwpunt: 14.02.2019 14:00:00 - 20.02.2019 14:00:00 (CET)Nancy/Ochey, Frankrijk (7181): temperatuur 5cm: 14.02.2019 14:00:00 - 20.02.2019 14:00:00 (CET)Nancy/Ochey, Frankrijk (7181): temperatuur -20cm: 14.02.2019 14:00:00 - 20.02.2019 14:00:00 (CET)Nancy/Ochey, Frankrijk (7181): windsnelheid & windstoten: 14.02.2019 14:00:00 - 20.02.2019 14:00:00 (CET)Nancy/Ochey, Frankrijk (7181): windrichting: 14.02.2019 14:00:00 - 20.02.2019 14:00:00 (CET)Nancy/Ochey, Frankrijk (7181): luchtdruk: 14.02.2019 14:00:00 - 20.02.2019 14:00:00 (CET)Nancy/Ochey, Frankrijk (7181): zicht: 14.02.2019 14:00:00 - 20.02.2019 14:00:00 (CET)Nancy/Ochey, Frankrijk (7181): neerslag: 14.02.2019 14:00:00 - 20.02.2019 14:00:00 (CET)
Datum & Tijd tt [°C] td [°C] tt 5cm [°C] tt -20cm [°C] ff [km/u] ff [kn] fx [km/u] fx [kn] dd ppp [hPa] vv [km] rr [mm]
20.02.2019 14:00:00 - - - - - - - - - - - -
20.02.2019 13:00:00 10,8 5,5 12,3 4,7 10 5 18 10 WZW 1025,2 22 0,0
20.02.2019 12:00:00 9,1 5,5 9,9 4,7 10 5 16 9 ZW 1025,7 13 0,0
20.02.2019 11:00:00 7,7 5,2 8,5 4,7 10 5 16 9 ZZW 1025,5 12 0,0
20.02.2019 10:00:00 6,1 4,4 6,5 4,8 0 0 8 4 N 1025,3 9 0,0
20.02.2019 09:00:00 4,7 4,1 -0,3 4,8 6 3 9 5 Z 1025,0 8 0,0
20.02.2019 08:00:00 2,3 1,6 -0,4 4,8 5 3 11 6 ZO 1025,0 6 0,0
20.02.2019 07:00:00 3,2 2,5 -1,1 4,8 6 3 11 6 Z 1024,4 11 0,0
20.02.2019 06:00:00 2,6 1,6 -1,2 4,9 3 2 6 4 OZO 1024,3 2,4 0,0
20.02.2019 05:00:00 4,1 2,8 2,4 4,9 5 3 11 6 ZO 1023,8 19 0,0
20.02.2019 04:00:00 4,0 2,3 2,9 4,9 4 2 7 4 ZW 1023,9 20 0,0
20.02.2019 03:00:00 3,8 2,3 2,7 4,9 3 2 11 6 ZZW 1024,3 28 0,0
20.02.2019 02:00:00 4,4 2,7 -0,7 4,9 10 5 12 6 ZZO 1024,2 30 0,0
20.02.2019 01:00:00 3,4 2,5 -3,5 4,9 4 2 8 4 ZZW 1024,4 31 0,0
20.02.2019 00:00:00 2,5 1,6 -3,7 4,9 5 3 9 5 Z 1024,4 19 0,0
19.02.2019 23:00:00 3,4 2,2 -3,7 4,9 5 3 7 4 ZZW 1024,3 34 0,0
19.02.2019 22:00:00 3,8 2,3 -2,6 4,9 4 2 10 5 Z 1024,2 37 0,0
19.02.2019 21:00:00 4,7 2,9 -1,5 4,9 7 4 10 6 Z 1024,0 41 0,0
19.02.2019 20:00:00 5,0 3,0 -2,5 4,8 5 3 8 4 ZZW 1023,7 41 0,0
19.02.2019 19:00:00 5,6 2,9 -2,4 4,8 3 2 10 5 W 1023,3 53 0,0
19.02.2019 18:00:00 6,9 3,3 2,4 4,7 5 3 17 9 NW 1022,9 52 0,0
19.02.2019 17:00:00 8,6 4,2 8,4 4,7 12 7 19 10 NW 1022,7 44 0,0
19.02.2019 16:00:00 9,4 4,2 9,8 4,7 9 5 14 7 WNW 1022,4 40 0,0
19.02.2019 15:00:00 9,5 4,5 11,5 4,6 10 5 21 11 ZW 1022,4 36 0,0
19.02.2019 14:00:00 9,8 4,2 10,8 4,6 7 4 16 9 Z 1022,5 18 0,0
19.02.2019 13:00:00 8,7 4,5 9,8 4,6 6 4 19 11 WZW 1022,9 25 0,0
19.02.2019 12:00:00 7,4 3,8 6,8 4,6 12 7 18 10 ZW 1023,7 20 0,0
19.02.2019 11:00:00 6,2 3,0 5,8 4,6 11 6 18 10 ZW 1023,5 22 0,0
19.02.2019 10:00:00 5,9 3,2 5,2 4,6 10 5 19 10 ZW 1023,1 16 0,0
19.02.2019 09:00:00 5,7 2,5 4,5 4,6 15 8 28 15 ZW 1022,6 17 0,0
19.02.2019 08:00:00 5,0 2,2 4,4 4,7 17 9 26 14 ZW 1021,6 20 0,0
19.02.2019 07:00:00 5,5 2,0 4,7 4,7 19 10 29 16 ZW 1020,7 26 0,0
19.02.2019 06:00:00 5,5 1,8 4,1 4,6 19 11 26 14 ZZW 1020,6 29 0,0
19.02.2019 05:00:00 6,0 1,5 3,4 4,7 12 7 19 10 ZZW 1020,2 36 0,0
19.02.2019 04:00:00 6,5 1,6 4,1 4,7 14 8 23 13 ZZW 1019,9 38 0,0
19.02.2019 03:00:00 6,0 1,5 4,3 4,7 21 11 30 16 ZZW 1020,2 36 0,0
19.02.2019 02:00:00 6,9 1,4 5,4 4,6 21 12 31 17 ZZW 1019,9 46 0,0
19.02.2019 01:00:00 7,2 1,5 5,5 4,6 23 12 29 16 ZZW 1020,1 48 0,0
19.02.2019 00:00:00 7,5 0,9 5,4 4,6 21 11 29 15 ZZW 1019,8 51 0,0
18.02.2019 23:00:00 7,9 0,8 3,0 4,6 19 10 25 14 ZZW 1019,6 54 0,0
18.02.2019 22:00:00 7,3 1,1 2,8 4,6 12 7 19 11 Z 1019,8 43 0,0
18.02.2019 21:00:00 7,2 1,1 0,2 4,5 12 6 19 11 ZZO 1019,6 47 0,0
18.02.2019 20:00:00 7,9 0,8 -0,7 4,5 12 7 16 8 Z 1019,4 50 0,0
18.02.2019 19:00:00 9,0 0,4 0,3 4,4 11 6 21 11 ZZO 1019,2 58 0,0
18.02.2019 18:00:00 10,6 0,6 8,3 4,4 17 9 32 17 ZZW 1018,7 58 0,0
18.02.2019 17:00:00 12,0 1,0 11,5 4,3 18 10 33 18 ZW 1018,4 47 0,0
18.02.2019 16:00:00 13,0 0,4 13,7 4,3 26 14 35 19 ZZW 1018,4 60 0,0
18.02.2019 15:00:00 13,0 1,0 14,2 4,2 21 12 32 18 ZW 1018,6 28 0,0
18.02.2019 14:00:00 12,7 0,7 15,4 4,2 25 13 34 19 ZW 1019,0 37 0,0
18.02.2019 13:00:00 12,5 1,5 16,9 4,2 22 12 31 17 ZZW 1019,7 45 0,0
18.02.2019 12:00:00 11,7 2,4 14,3 4,2 19 11 34 18 Z 1020,5 20 0,0
18.02.2019 11:00:00 10,3 3,1 10,6 4,2 29 16 43 23 Z 1021,0 35 0,0
18.02.2019 10:00:00 8,4 2,4 9,4 4,3 29 16 50 27 ZZW 1021,6 38 0,0
18.02.2019 09:00:00 7,8 1,8 4,0 4,3 24 13 38 20 Z 1021,8 35 0,0
18.02.2019 08:00:00 6,1 1,8 3,4 4,3 20 11 36 19 Z 1021,9 34 0,0
18.02.2019 07:00:00 6,5 1,8 3,1 4,3 23 12 31 17 Z 1022,0 37 0,0
18.02.2019 06:00:00 6,1 0,6 1,5 4,3 12 6 19 11 Z 1022,1 48 0,0
18.02.2019 05:00:00 6,3 0,2 2,5 4,3 15 8 24 13 ZZO 1022,1 48 0,0
18.02.2019 04:00:00 7,1 0,3 4,2 4,3 14 8 25 13 Z 1022,1 52 0,0
18.02.2019 03:00:00 7,4 0,1 3,0 4,4 14 8 23 13 Z 1022,4 53 0,0
18.02.2019 02:00:00 8,2 0,2 1,7 4,3 11 6 21 11 Z 1022,3 55 0,0
18.02.2019 01:00:00 7,9 -0,3 0,9 4,3 7 4 19 11 Z 1022,7 55 0,0
18.02.2019 00:00:00 8,2 -0,3 -0,2 4,3 11 6 18 10 Z 1022,5 54 0,0
17.02.2019 23:00:00 8,7 -0,1 0,1 4,3 10 6 21 11 Z 1022,5 48 0,0
17.02.2019 22:00:00 9,2 -0,2 2,1 4,2 15 8 23 12 ZZO 1022,6 52 0,0
17.02.2019 21:00:00 9,1 -0,3 0,6 4,2 13 7 21 11 ZZO 1022,5 45 0,0
17.02.2019 20:00:00 8,5 0,5 1,7 4,1 15 8 19 10 ZZO 1022,6 42 0,0
17.02.2019 19:00:00 9,3 0,7 1,7 4,0 13 7 19 10 ZZO 1022,5 23 0,0
17.02.2019 18:00:00 12,1 0,2 5,7 4,0 11 6 22 12 ZO 1021,8 54 0,0
17.02.2019 17:00:00 14,6 0,8 15,1 3,9 15 8 26 14 ZO 1021,5 39 0,0
17.02.2019 16:00:00 17,1 -1,1 20,3 3,8 12 7 29 15 ZZW 1021,6 54 0,0
17.02.2019 15:00:00 17,2 -1,5 20,7 3,8 18 10 31 17 ZW 1021,8 41 0,0
17.02.2019 14:00:00 16,8 -1,8 21,3 3,8 19 11 33 18 Z 1022,2 37 0,0
17.02.2019 13:00:00 16,3 -1,8 19,2 3,8 24 13 39 21 ZZW 1022,8 42 0,0
17.02.2019 12:00:00 14,6 -1,5 15,8 3,8 23 13 46 25 ZZW 1023,7 47 0,0
17.02.2019 11:00:00 12,9 -0,7 12,9 3,8 31 17 49 27 Z 1023,9 54 0,0
17.02.2019 10:00:00 11,1 -0,7 10,6 3,8 29 16 45 24 Z 1024,3 56 0,0
17.02.2019 09:00:00 9,8 -1,0 5,2 3,9 23 12 41 22 Z 1024,6 42 0,0
17.02.2019 08:00:00 7,7 -1,0 4,5 3,9 19 10 40 21 Z 1024,9 31 0,0
17.02.2019 07:00:00 7,7 -2,1 2,3 3,9 15 8 34 18 Z 1024,8 40 0,0
17.02.2019 06:00:00 7,5 -2,0 2,8 3,9 10 5 18 10 Z 1024,9 40 0,0
17.02.2019 05:00:00 7,9 -1,9 3,4 3,9 9 5 23 12 Z 1024,9 42 0,0
17.02.2019 04:00:00 7,6 -1,9 0,6 3,9 16 8 26 14 Z 1025,1 38 0,0
17.02.2019 03:00:00 6,6 -1,6 1,0 3,9 12 7 22 12 ZZO 1025,7 27 0,0
17.02.2019 02:00:00 7,9 -0,8 0,4 3,9 16 8 22 12 ZZO 1025,7 24 0,0
17.02.2019 01:00:00 7,7 -0,3 0,8 3,9 13 7 21 11 ZZO 1026,0 25 0,0
17.02.2019 00:00:00 6,7 -0,8 0,7 3,8 13 7 18 10 ZZO 1026,5 22 0,0
16.02.2019 23:00:00 7,3 -1,4 -1,8 3,8 11 6 15 8 ZZO 1026,9 26 0,0
16.02.2019 22:00:00 6,3 0,0 -2,5 3,7 5 3 10 6 Z 1027,1 25 0,0
16.02.2019 21:00:00 8,5 0,2 1,8 3,7 2 1 13 7 W 1026,7 25 0,0
16.02.2019 20:00:00 9,1 0,8 2,9 3,6 12 6 16 9 ZZO 1026,8 27 0,0
16.02.2019 19:00:00 9,5 1,4 3,6 3,6 13 7 18 10 ZZO 1027,1 24 0,0
16.02.2019 18:00:00 11,8 2,3 6,4 3,5 11 6 18 10 ZZO 1026,5 29 0,0
16.02.2019 17:00:00 15,1 1,6 15,8 3,4 12 7 18 10 ZZO 1026,1 33 0,0
16.02.2019 16:00:00 16,7 1,1 21,0 3,4 9 5 15 8 ZZW 1026,1 38 0,0
16.02.2019 15:00:00 17,6 1,9 21,5 3,4 6 4 17 9 WZW 1026,3 32 0,0
16.02.2019 14:00:00 16,7 2,3 20,6 3,4 13 7 21 11 ZW 1026,9 20 0,0
16.02.2019 13:00:00 16,0 1,7 19,6 3,4 10 6 23 12 Z 1027,4 19 0,0
16.02.2019 12:00:00 14,9 1,1 16,3 3,5 10 6 19 10 Z 1028,0 35 0,0
16.02.2019 11:00:00 11,7 2,4 11,9 3,5 10 6 16 8 ZW 1028,6 20 0,0
16.02.2019 10:00:00 8,5 1,2 6,0 3,5 7 4 10 6 ZO 1028,9 18 0,0
16.02.2019 09:00:00 4,2 0,2 -3,8 3,5 8 5 12 7 ZO 1029,6 17 0,0
16.02.2019 08:00:00 2,7 -0,8 -5,8 3,6 6 3 13 7 WZW 1029,5 18 0,0
16.02.2019 07:00:00 -0,1 -3,1 -4,0 3,6 8 4 15 8 ZO 1029,5 16 0,0
16.02.2019 06:00:00 3,0 -1,2 -3,1 3,6 11 6 16 8 ZZO 1029,1 19 0,0
16.02.2019 05:00:00 3,6 -1,2 -2,4 3,6 13 7 15 8 ZZO 1029,1 15 0,0
16.02.2019 04:00:00 2,1 -1,7 -3,4 3,6 12 7 16 9 ZZO 1029,3 17 0,0
16.02.2019 03:00:00 0,9 -1,3 -4,2 3,6 10 5 14 8 ZZO 1030,0 13 0,0
16.02.2019 02:00:00 3,8 0,1 -1,7 3,6 5 3 16 9 ZZO 1029,7 12 0,0
16.02.2019 01:00:00 4,1 1,6 -4,8 3,6 10 5 12 6 ZZO 1029,6 10 0,0
16.02.2019 00:00:00 3,4 1,0 -2,9 3,6 7 4 18 10 ZZO 1029,7 11 0,0
15.02.2019 23:00:00 3,8 1,0 -2,0 3,5 13 7 14 8 ZO 1030,0 12 0,0
15.02.2019 22:00:00 4,3 0,4 -1,9 3,5 6 3 10 5 OZO 1030,0 16 0,0
15.02.2019 21:00:00 5,8 1,3 0,8 3,5 8 4 16 8 ZO 1029,6 18 0,0
15.02.2019 20:00:00 6,5 1,8 -0,7 3,4 13 7 16 9 ZO 1029,8 19 0,0
15.02.2019 19:00:00 7,0 1,9 -0,7 3,4 9 5 14 8 OZO 1029,9 20 0,0
15.02.2019 18:00:00 9,8 3,1 3,5 3,3 11 6 14 7 OZO 1029,6 19 0,0
15.02.2019 17:00:00 13,0 2,8 13,5 3,3 7 4 10 6 OZO 1029,3 36 0,0
15.02.2019 16:00:00 15,0 3,2 20,0 3,3 8 4 9 5 O 1029,3 19 0,0
15.02.2019 15:00:00 14,6 3,1 19,6 3,3 5 3 11 6 ONO 1029,6 37 0,0
15.02.2019 14:00:00 14,7 2,9 18,0 3,3 4 2 11 6 NNO 1030,3 27 0,0
15.02.2019 13:00:00 11,4 1,6 14,8 3,3 3 2 10 6 OZO 1031,4 20 0,0
15.02.2019 12:00:00 9,0 1,9 12,0 3,4 4 2 9 5 O 1032,5 14 0,0
15.02.2019 11:00:00 6,5 0,8 7,0 3,4 4 2 12 6 O 1033,2 13 0,0
15.02.2019 10:00:00 4,6 -0,2 1,0 3,4 8 4 14 7 OZO 1033,6 12 0,0
15.02.2019 09:00:00 2,0 0,1 -6,1 3,5 0 0 12 7 N 1033,9 11 0,0
15.02.2019 08:00:00 -0,8 -1,8 -7,5 3,5 8 4 14 7 O 1034,3 9 0,0
15.02.2019 07:00:00 -0,8 -1,5 -8,0 3,5 5 3 9 5 O 1034,0 6 0,0
15.02.2019 06:00:00 -0,6 -1,3 -7,6 3,5 3 2 7 4 Z 1033,9 6 0,0
15.02.2019 05:00:00 -0,9 -1,9 -6,4 3,5 5 3 11 6 O 1034,0 7 0,0
15.02.2019 04:00:00 0,6 -0,7 -6,2 3,5 5 3 11 6 O 1034,0 6 0,0
15.02.2019 03:00:00 1,6 -0,2 -6,3 3,5 9 5 11 6 O 1034,2 8 0,0
15.02.2019 02:00:00 0,8 -1,3 -5,9 3,5 6 4 14 8 O 1034,4 11 0,0
15.02.2019 01:00:00 2,6 -0,9 -4,2 3,5 9 5 12 7 O 1034,3 14 0,0
15.02.2019 00:00:00 3,1 -0,5 -4,8 3,5 5 3 9 5 O 1034,4 17 0,0
14.02.2019 23:00:00 3,4 -0,8 -4,1 3,5 6 3 18 10 O 1034,5 20 0,0
14.02.2019 22:00:00 5,0 -0,6 -3,2 3,4 9 5 17 9 O 1034,5 24 0,0
14.02.2019 21:00:00 6,7 -0,5 2,9 3,4 9 5 18 10 O 1034,2 26 0,0
14.02.2019 20:00:00 7,2 0,6 -1,8 3,4 6 3 13 7 O 1034,3 18 0,0
14.02.2019 19:00:00 7,1 2,0 -0,3 3,4 9 5 14 8 O 1034,4 19 0,0
14.02.2019 18:00:00 7,8 2,3 0,8 3,3 8 4 16 8 O 1033,8 19 0,0
14.02.2019 17:00:00 11,5 2,2 11,0 3,3 10 5 17 9 O 1033,6 35 0,0
14.02.2019 16:00:00 12,2 2,3 15,0 3,3 8 4 19 10 OZO 1034,0 43 0,0
14.02.2019 15:00:00 11,9 2,1 15,0 3,4 10 5 21 11 OZO 1034,5 16 0,0
14.02.2019 14:00:00 10,6 1,4 13,2 3,4 14 7 21 11 ZO 1035,3 12 0,0

tt = temperatuur
td = dauwpunt
tt 5cm = temperatuur 5cm
tt -20cm = temperatuur -20cm
ff = windsnelheid
fx = windstoten
dd = windrichting
ppp = luchtdruk
vv = zicht
rr = neerslag

Weerstations in de omgeving